Regional Weather Roundup
Issued by NWS

Home | Current Version | Previous Version | Text Only | Print | Product List | Glossary Off
Versions: 1 2 3 4 5 6 7 8 9 10 11 12 13 14 15 16 17 18 19 20 21 22 23 24 25 26 27 28 29 30 31 32 33 34 35 36 37 38 39 40 41 42 43 44 45 46 47 48 49 50

642
ASUS43 KMPX 201601
RWRMN
WEATHER ROUNDUP FOR MINNESOTA
NATIONAL WEATHER SERVICE TWIN CITIES/CHANHASSEN MN
1100 AM CDT WED SEP 20 2017


NOTE: "FAIR" INDICATES FEW OR NO CLOUDS BELOW 12,000 FEET WITH NO
SIGNIFICANT WEATHER AND/OR OBSTRUCTIONS TO VISIBILITY. N/A MEANS
CURRENT SKY AND/OR WEATHER CONDITIONS ARE NOT AVAILABLE.

MNZ060>063-068>070-201700-
   Twin Cities Metro

CITY           SKY/WX    TMP DP  RH WIND       PRES   REMARKS
TWIN CITIES    MOSUNNY   71  60  68 W12       29.74R
ST PAUL        PTSUNNY   71  62  73 W9        29.74R
CRYSTAL        MOSUNNY   69  56  62 W14       29.73R
BLAINE         PTSUNNY   70  63  78 W14       29.74R
LAKEVILLE      SUNNY     70  57  64 W10G16    29.75R
EDEN PRAIRIE   MOSUNNY   69  58  67 NW13G22   29.74R
SOUTH ST PAUL  MOSUNNY   71  61  70 W10       29.73R
LAKE ELMO      CLOUDY    70  63  78 W9G16     29.74R
$$
MNZ001>005-007-008-013>017-022>024-027-028-201700-
   Northwest Minnesota

CITY           SKY/WX    TMP DP  RH WIND       PRES   REMARKS
BEMIDJI        CLOUDY    57  50  77 W9        29.72R
HALLOCK        CLOUDY    61  50  67 W14       29.64R
ROSEAU         SUNNY     59  50  72 SW13G21   29.65R
WARROAD        MOSUNNY   59  52  77 W18G24    29.64R
CROOKSTON      SUNNY     61  48  63 W13       29.71R
FOSSTON        SUNNY     57  50  77 W10       29.72R
DETROIT LAKES  SUNNY     59  46  63 W12       29.76R
MOORHEAD       SUNNY     61  46  59 SW6       29.75R
PARK RAPIDS    SUNNY     61  50  67 W13       29.74R
MAHNOMEN       FAIR      58  49  71 W13       29.74R
$$
MNZ006-009>011-018-025>026-201700-
   North Central Minnesota

CITY           SKY/WX    TMP DP  RH WIND       PRES   REMARKS
BAUDETTE       MOSUNNY   61  53  75 W10       29.64R
FLAG ISLAND    SUNNY     57  52  82 W13       29.60R
INTL FALLS     CLOUDY    61  57  87 W8        29.63R
WASKISH        PTSUNNY   57  55  94 SW16      29.68R
BIG FORK       MOSUNNY   63  55  77 SW7       29.67R
LONGVILLE      MOSUNNY   63  55  77 W9G16     29.71R
GRAND RAPIDS   PTSUNNY   64  58  80 W9        29.70R
CRANE LAKE     RAIN      63  61  94 S6        29.63R
ORR            DRIZZLE   61  57  88 W9        29.63R
COOK           RAIN      63  61  94 SW7       29.66R
WALKER         PTSUNNY   61  53  74 W15       29.72R
$$
MNZ012-019>021-037-201700-
   Northeast Minnesota

CITY           SKY/WX    TMP DP  RH WIND       PRES   REMARKS
DULUTH         CLOUDY    65  65 100 S12       29.67R
ELY            CLOUDY    63  63 100 S13G18    29.64R
HIBBING        LGT RAIN  61  59  93 W7G21     29.68R
EVELETH        LGT RAIN  63  61  94 SW8       29.67R
DULUTH HARBOR  CLOUDY    66  64  94 W8        29.65R
TWO HARBORS    CLOUDY    66  63  88 CALM      29.65S
$$
MNZ029>031-032-039>041-046>048-054>057-064-201700-
   West Central Minnesota

CITY           SKY/WX    TMP DP  RH WIND       PRES   REMARKS
FERGUS FALLS   SUNNY     61  48  63 W10       29.77S
WHEATON        SUNNY     63  43  48 W9        29.79S
MORRIS         SUNNY     63  48  59 W12       29.79R
ALEXANDRIA     SUNNY     61  49  64 W14       29.79R
ELBOW LAKE     FAIR      58  49  72 NW12      29.78R
WADENA         SUNNY     61  48  63 W10G16    29.75R
GLENWOOD       SUNNY     63  50  63 W13       29.79R
APPLETON       SUNNY     63  46  55 NW8       29.79R
BENSON         SUNNY     64  46  52 N12G18    29.81R
ORTONVILLE     SUNNY     63  45  51 NW7         N/A
MADISON        SUNNY     64  50  59 W9        29.81R
WILLMAR        FAIR      64  54  68 NW10G18   29.81R
$$
MNZ033>034-036-042>043-049>051-058-059-201700-
   Central Minnesota

CITY           SKY/WX    TMP DP  RH WIND       PRES   REMARKS
ST CLOUD       SUNNY     66  57  72 W14       29.75R
SAUK CENTRE    FAIR      61  51  70 W14       29.78R
PAYNESVILLE    SUNNY     63  53  70 NW14G20   29.79R
AITKIN         MOSUNNY   64  55  72 W13       29.70R
PINE RIVER     SUNNY     61  52  72 W7G17     29.76R
BRAINERD       MOSUNNY   62  54  74 W10       29.74R
STAPLES          N/A    N/A N/A N/A W12       29.76R
LONG PRAIRIE   FAIR      61  50  67 W15       29.78R
LITTLE FALLS   SUNNY     63  45  51 W16       29.76R
LITCHFIELD     SUNNY     64  57  77 NW12G17   29.78R
BUFFALO        SUNNY     66  56  70 W10       29.77R
MAPLE LAKE     SUNNY     67  59  75 NW12G17   29.77R
HUTCHINSON     SUNNY     66  56  70 W14G21    29.79R
$$
MNZ037-044-045-052-053-201700-
   East Central Minnesota

CITY           SKY/WX    TMP DP  RH WIND       PRES   REMARKS
PRINCETON      SUNNY     70  59  68 W14G21    29.74R
MORA           PTSUNNY   61  61 100 NW9       29.73R
CAMBRIDGE      MOSUNNY   70  57  64 W10G16    29.74R
RUSH CITY      CLOUDY    65  60  85 W7        29.73R
MOOSE LAKE     CLOUDY    64  61  88 W9        29.69R FOG
HINCKLEY       CLOUDY    64  63  94 W9        29.72R
CLOQUET        LGT RAIN  64  61  88 W18G25    29.69R
MCGREGOR       PTSUNNY   63  61  94 W9        29.71R
$$
MNZ071>073-080-081-089-090-097-098-201700-
   Southwest Minnesota

CITY           SKY/WX    TMP DP  RH WIND       PRES   REMARKS
MONTEVIDEO     MOSUNNY   64  57  77 NW7       29.80R
GRANITE FALLS  SUNNY     65  51  61 W13       29.82R
CANBY          SUNNY     64  49  59 NW12      29.82S
MARSHALL       SUNNY     63  49  60 NW14      29.82R
REDWOOD FALLS  SUNNY     65  51  60 MISG      29.79R
OLIVIA         SUNNY     63  52  67 NW14      29.79R
PIPESTONE      CLOUDY    63  48  59 N14       29.83S
WINDOM         SUNNY     64  52  63 NW14      29.82R
WORTHINGTON    SUNNY     63  51  65 NW14      29.83R
JACKSON        SUNNY     64  54  68 NW9G16    29.82R
TRACY          SUNNY     64  51  64 NW13G18   29.83R
SLAYTON        SUNNY     61  49  66 NW16G23   29.82R
$$
MNZ065>067-074>077-082>085-091>093-201700-
   South Central Minnesota

CITY           SKY/WX    TMP DP  RH WIND       PRES   REMARKS
NEW ULM        SUNNY     64  54  68 NW18      29.79R
ST JAMES       SUNNY     66  55  68 W12G17    29.81R
FAIRMONT       SUNNY     68  55  63 NW16      29.80R
GLENCOE        SUNNY     67  59  75 W10       29.77R
FARIBAULT      SUNNY     70  57  64 W13G18    29.77R
OWATONNA       MOSUNNY   70  59  68 W12       29.77R
WASECA         SUNNY     70  55  60 W12       29.79R
ALBERT LEA     PTSUNNY   73  61  64 NW6       29.76R
$$
MNZ078>079-086>088-094>096-201700-
   Southeast Minnesota

CITY           SKY/WX    TMP DP  RH WIND       PRES   REMARKS
ROCHESTER      CLOUDY    76  68  76 SW14G20   29.75R
RED WING       CLOUDY    77  64  65 W16       29.71R
STANTON        CLOUDY    70  61  73 W8        29.74R
DODGE CENTER   PTSUNNY   73  66  78 W13       29.75R
WINONA         CLOUDY    77  66  69 SW10      29.73R
AUSTIN         CLOUDY    75  68  78 SW7       29.75R
PRESTON        CLOUDY    73  66  78 SW13      29.77R
$$
ABBREVIATIONS USED IN REMARKS
   TC - TEMPERATURES IN CELSIUS
  WCI - WIND CHILL INDEX
   HX - HEAT INDEX
  VSB - VISIBILITY
$$




USA.gov is the U.S. government's official web portal to all federal, state and local government web resources and services.